weather.gov     
National Weather Service

Terminal Aerodrome Forecast
NWS Homepage
This page is being discontinued on March 12, 2014.
The same data is available at this site. Please update your bookmarks.
Thank you, and we apologize for the inconvenience.
Please send an email to SR-SRH.Webmaster@noaa.gov with any concerns.


Current Version
Previous Version:    01  02  03  04  05  06  07  08  09  10  11  12  13  14  15  16  17  18  19  20  21  22  23  24  25  26  27  
[Printable]
728
FTUS44 KLZK 020500
TAFHRO
TAF
KHRO 020520Z 0206/0306 13008KT P6SM VCTS SCT040CB BKN120
      TEMPO 0206/0208 VRB15G30KT 3SM -TSRA BKN025CB
     FM020800 16007KT P6SM VCTS SCT025 BKN040CB
     FM021000 18007KT P6SM BKN040 BKN080
      TEMPO 0210/0213 -TSRA BKN030CB
     FM021500 22009KT P6SM SCT040 BKN080 PROB30 0218/0224 5SM -TSRA
      BKN040CB
     FM030100 19006KT P6SM SCT080=


U.S. Dept. of Commerce
NOAA National Weather Service
1325 East West Highway
Silver Spring, MD 20910
E-mail: w-nws.webmaster@noaa.gov
Page last modified: May 16, 2007
NATIONAL WEATHER SERVICE: for Safety, for Work, for Fun - FOR LIFE